Location: Lake Zurich
(42.1970°N, 88.0930°W)
Time: 14:27:27
(UTC-05:00)

Daily predictions for brighter satellites

Satellite Brightness Start Highest point End
(mag) Time Altitude Azimuth Time Altitude Azimuth Time Altitude Azimuth
USA 229 DEB 4.0 20:56:41 10° S 21:03:15 48° ESE 21:09:54 10° NE
USA 229 4.0 20:56:49 10° S 21:03:22 47° ESE 21:10:00 10° NE
Cosmos 332 Rocket 4.4 21:03:31 10° NNW 21:08:16 57° WSW 21:13:00 10° S
Cosmos 2151 4.1 21:11:06 10° SE 21:14:34 26° E 21:18:03 10° NNE
Cosmos 1674 3.5 21:11:15 10° SSE 21:14:42 33° E 21:18:12 10° NNE
Terra 4.0 21:15:01 10° ENE 21:16:24 11° ENE 21:17:47 10° NE
Cosmos 1437 Rocket 3.0 21:12:46 10° N 21:16:29 51° ENE 21:20:14 10° SSE
CZ-4 SHROUD 3.9 21:14:17 10° SE 21:17:14 39° ENE 21:20:12 10° N
Cosmos 968 Rocket 3.6 21:14:25 10° SSW 21:19:35 86° WNW 21:24:51 10° NNE
Cosmos 1151 Rocket 3.5 21:17:09 10° N 21:21:18 44° ENE 21:25:26 10° SSE
Meteor 1-21 Rocket 4.2 21:23:01 10° S 21:28:35 89° E 21:34:08 10° N
COSMOS 2428 4.0 21:26:54 10° N 21:31:49 29° NE 21:36:34 11° ESE
Envisat 3.2 21:31:40 10° S 21:36:44 76° WSW 21:41:51 10° NNW
H-2A R/B 2.8 21:32:35 10° S 21:37:00 54° W 21:41:28 10° NNW
Cosmos 1328 4.4 21:34:24 11° SSE 21:37:53 37° E 21:41:33 10° NNE
ATLAS 5 CENTAUR R/B 4.4 21:34:50 10° W 21:39:02 26° NW 21:43:30 10° NNE
Meteor 2-20 4.5 21:33:39 10° S 21:39:48 86° E 21:45:58 10° N
DELTA 2 R/B (1) 3.7 21:35:20 10° W 21:40:49 63° S 21:45:58 12° ESE
Cosmos 2112 Rocket 4.4 21:38:36 10° N 21:43:42 50° ENE 21:47:47 16° SE
Cosmos 2058 3.7 21:42:56 15° SSE 21:45:50 33° E 21:49:33 10° NNE
ERS-1 Rocket 4.4 21:41:51 10° SSW 21:46:27 36° W 21:51:05 10° NNW
YAOGAN 6 2.6 21:46:03 15° SSE 21:48:58 69° ENE 21:52:35 10° N
SPOT 5 3.0 21:46:04 10° S 21:50:33 69° WSW 21:55:18 10° NNW
Cosmos 2219 Rocket 3.8 21:48:07 10° N 21:52:25 22° NE 21:56:41 10° ESE
Cosmos 405 3.1 21:49:06 10° NNW 21:52:45 77° W 21:55:47 14° S
Cosmos 1777 Rocket 4.3 21:48:17 10° SSW 21:53:34 72° WNW 21:58:50 10° NNE
Cosmos 1437 2.7 21:52:17 13° S 21:55:08 68° E 21:58:25 10° NNE
MetOp-A 4.3 21:54:51 11° S 21:59:59 74° WSW 22:05:22 10° NNW
ARGOS 3.3 21:55:49 16° SSE 22:00:05 66° ENE 22:05:27 10° N
H-2A R/B 2.9 22:00:41 18° SE 22:04:08 37° ENE 22:09:06 10° N
BREEZE-M DEB (TANK) 4.1 22:02:41 10° NW 22:04:16 19° NNE 22:06:08 10° ENE
SL-14 R/B 3.9 22:05:19 23° SE 22:07:12 38° E 22:10:55 10° NNE
Meteor 1-27 4.4 22:03:07 10° N 22:08:46 60° ENE 22:12:32 21° SSE
Cosmos 2219 3.3 22:03:26 10° S 22:09:04 60° ESE 22:14:45 10° NNE
NOSS 3-1 (C) 3.6 22:05:44 10° S 22:11:15 46° ESE 22:17:19 10° NE
SL-08 RB Rocket 3.7 22:08:39 22° SSE 22:11:30 69° ENE 22:16:00 10° N
ATLAS CENTAUR R/B 4.1 22:11:42 10° W 22:12:55 11° WSW 22:14:05 10° WSW
Cosmos 1271 Rocket 3.9 22:10:09 10° NNE 22:13:29 28° ENE 22:14:51 22° ESE
Cosmos 2242 Rocket 4.4 22:10:19 10° N 22:14:29 38° ENE 22:16:33 24° SE
SPOT 1/Viking Rocket 3.6 22:12:05 17° S 22:16:06 75° WSW 22:21:17 10° NNW
Cosmos 2322 3.9 22:11:09 10° NNW 22:16:52 69° WSW 22:20:54 20° S
Delta 2 Rocket 4.2 22:15:49 10° SW 22:17:57 22° SSW 22:17:57 22° SSW
DELTA 2 DEB (DPAF) 4.3 22:16:07 25° SSE 22:18:40 63° ENE 22:23:07 10° N
Cosmos 2237 Rocket 3.8 22:14:53 10° N 22:19:29 24° NE 22:23:15 13° E
Cosmos 1726 2.3 22:17:13 10° N 22:20:57 56° E 22:22:28 32° SE
Cosmos 1680 Rocket 3.8 22:16:04 10° NNW 22:21:16 66° WSW 22:24:51 20° S
Cosmos 2322 Rocket 4.2 22:18:20 10° NW 22:22:25 21° W 22:26:29 10° SSW
USA 245 3.6 22:26:25 24° SSW 22:27:29 34° WSW 22:29:47 10° NNW
Iridium 2 4.4 22:28:43 32° ESE 22:29:40 38° E 22:33:15 10° NNE
Cosmos 304 Rocket 4.5 22:25:11 10° NNW 22:29:49 49° WSW 22:32:54 20° S
SL-16 R/B 4.3 22:27:49 10° NW 22:31:41 19° W 22:35:33 10° SW
CZ-4B R/B 4.2 22:27:57 10° N 22:33:08 57° WNW 22:38:13 10° SSW
Cosmos 2360 Rocket 2.9 22:28:18 10° NW 22:33:42 48° WSW 22:37:27 19° S
Cosmos 2150 Rocket 4.1 22:31:21 21° S 22:34:52 60° ESE 22:40:15 10° NNE
NOAA 11 4.4 22:31:17 20° S 22:35:02 66° WSW 22:40:29 10° NNW
Cosmos 1898 Rocket 3.5 22:33:17 24° S 22:36:20 59° ESE 22:41:27 10° NNE
Cosmos 2315 Rocket 4.4 22:31:16 10° NNW 22:37:22 59° W 22:42:17 16° SSW
Landsat 7 3.8 22:35:02 29° SSE 22:37:32 90° WNW 22:42:19 10° NNW
Meteor 1-11 4.3 22:33:41 15° S 22:38:35 85° W 22:44:21 10° N
CARTOSAT-1 3.6 22:37:19 34° SSE 22:39:06 68° ENE 22:43:24 10° N
DMSP B5D2-2 4.2 22:34:50 10° NNE 22:39:59 56° E 22:42:27 29° SSE
Cosmos 1633 Rocket 3.0 22:42:16 28° S 22:44:34 89° W 22:48:59 10° N
Cosmos 858 Rocket 4.5 22:42:00 26° S 22:44:54 64° ESE 22:50:04 10° NNE
Sich 1 3.1 22:42:32 26° SSW 22:45:00 83° W 22:49:27 10° N
Spot 4 4.0 22:44:35 33° SE 22:46:37 62° ENE 22:51:24 10° N
Cosmos 292 Rocket 3.8 22:47:55 10° NNW 22:52:41 70° ENE 22:54:22 39° SE
Terra 1.7 22:51:23 36° SSE 22:53:23 89° WSW 22:58:11 10° NNW
Meteor 2-10 4.2 22:51:33 10° N 22:57:16 80° E 22:59:52 34° SSE
Meteor 1-4 Rocket 2.6 22:53:55 10° NNW 22:57:41 75° W 22:58:33 50° S
Cosmos 1300 4.0 22:55:00 10° NNW 22:58:31 35° W 23:00:11 23° SW
Cosmos 2227 Rocket 2.7 22:57:46 34° SE 22:59:11 40° ESE 23:04:28 10° NE
Cosmos 1626 2.6 22:59:43 43° E 22:59:50 44° E 23:03:26 10° NNE
SeaSat 1 3.5 22:58:28 24° ESE 23:00:44 36° NE 23:05:14 10° N
Cosmos 1346 4.0 23:04:05 39° NE 23:04:05 39° NE 23:06:22 10° NNE
USA 32 4.2 22:58:41 10° N 23:03:55 68° W 23:06:29 30° SSW
Cosmos 2333 Rocket 2.5 22:59:04 10° NNW 23:04:45 58° ENE 23:07:11 33° SE
CZ-4C R/B 4.5 23:07:41 25° SW 23:08:39 29° W 23:11:44 10° NW
Spot 2 4.4 23:04:05 10° NNE 23:09:16 90° WNW 23:11:31 34° SSW
Nadezhda 1 Rocket 3.9 23:03:36 10° N 23:09:43 86° E 23:12:27 36° S
SL-16 R/B 3.7 23:05:52 10° N 23:10:41 27° NE 23:13:41 18° E
Lacrosse 4 Rocket 3.7 23:09:17 10° N 23:12:20 18° NE 23:14:35 13° E
Cosmos 1869 3.5 23:08:55 10° N 23:12:55 57° E 23:13:24 53° ESE
NOSS 3-1 (A) 3.4 23:07:32 10° SW 23:13:25 86° WNW 23:20:01 10° NE
COSMOS 2428 3.4 23:10:52 10° NW 23:16:14 45° WSW 23:18:35 29° SSW
Cosmos 1745 Rocket 4.2 23:17:11 25° SSW 23:20:58 70° W 23:27:09 10° N
Cosmos 1455 2.0 23:17:50 10° N 23:21:40 88° WSW 23:21:56 76° S
Cosmos 2297 Rocket 2.5 23:25:45 42° SE 23:26:47 47° ESE 23:32:11 10° NE
DELTA 2 R/B (1) 4.4 23:21:55 10° W 23:26:42 32° SSW 23:26:42 32° SSW
Cosmos 1709 Rocket 4.0 23:27:28 41° SSE 23:29:31 63° E 23:35:33 10° NNE
H-2A R/B 4.1 23:27:49 10° NE 23:30:32 21° E 23:30:32 21° E
Cosmos 2221 Rocket 4.2 23:28:23 10° N 23:32:47 44° ENE 23:33:22 42° E
Cosmos 192 4.4 23:28:12 10° NNW 23:33:07 70° ENE 23:34:11 52° SE
Cosmos 1470 Rocket 4.1 23:31:55 37° SW 23:33:15 52° W 23:37:29 10° N
Cosmos 1933 Rocket 4.1 23:33:20 37° SW 23:34:46 54° W 23:39:10 10° N
COS B Rocket 3.7 23:31:55 10° NNE 23:35:12 47° ENE 23:35:12 47° ENE
ATLAS 2AS CENTAUR R/B 3.0 23:32:38 34° S 23:35:58 60° ESE 23:43:50 10° NE
Cosmos 1703 Rocket 3.9 23:32:22 10° N 23:36:37 50° ENE 23:37:00 48° E
Cosmos 2219 Rocket 2.4 23:31:18 10° NNW 23:36:49 61° WSW 23:38:24 44° SSW
GEOS 3 Rocket 3.9 23:35:40 36° ESE 23:37:41 60° NE 23:42:48 10° NNW
COSMOS 2455 3.5 23:33:37 10° NNW 23:39:27 48° NE 23:42:07 29° ESE
Cosmos 1937 Rocket 4.1 23:36:51 23° SW 23:39:59 53° WNW 23:45:05 10° N
Okean 1-7 3.9 23:38:04 10° N 23:42:01 35° ENE 23:42:15 34° E
H-2A R/B 3.5 23:41:19 22° SW 23:43:35 29° W 23:48:16 10° NW
Cosmos 2181 Rocket 4.0 23:42:19 10° N 23:48:43 79° E 23:50:50 45° SSE
Cosmos 1980 3.8 23:44:52 10° NNW 23:50:29 66° WSW 23:51:50 49° SSW
Cosmos 389 Rocket 3.7 23:52:43 10° N 23:55:35 35° NE 23:55:35 35° NE
